Location: Curicchi
(45.0167°N, 12.0500°E)
Time: 20:15:45
(UTC+00:00)

Envisat - Visible Passes

Search period start: 01 August 2021 00:00
Search period end: 11 August 2021 00:00
Orbit: 764 x 766 km, 98.2° (Epoch: 01 August)

Date Brightness Start Highest point End Pass type
(mag) Time Alt. Az. Time Alt. Az. Time Alt. Az.
01 Aug 5.9 03:07:54 10° ENE 03:10:15 13° E 03:12:34 10° ESE visible
06 Aug 5.7 03:20:52 10° NE 03:24:18 18° E 03:27:42 10° SE visible
09 Aug 5.9 03:10:00 10° ENE 03:12:40 14° E 03:15:19 10° ESE visible
